Anchorage, AK

12:02 AM AKST on February 10, 2016 (GMT -0900)
Lake Hood

Weather History for PALH - September, 2012

Change the Weather History Date:

Saturday, September 8, 2012

  Actual Average Record
Temperature  
Mean Temperature 50 °F -  
Max Temperature 60 °F 57 °F 64 °F (2003)
Min Temperature 41 °F 42 °F 37 °F (1996)
Degree Days  
Heating Degree Days 15    
Moisture  
Dew Point 39 °F    
Average Humidity 76    
Maximum Humidity 89    
Minimum Humidity 48    
Precipitation  
Precipitation 0.04 in - - ()
Sea Level Pressure  
Sea Level Pressure 29.82 in    
Wind  
Wind Speed 3 mph (NNE)    
Max Wind Speed 8 mph    
Max Gust Speed -    
Visibility 9 miles    
Events      
Averages and records for this station are not official NWS values.
T = Trace of Precipitation, MM = Missing Value Source: NWS Daily Summary

Daily Weather History Graph

Daily Weather History Graph

Search for Another Location

Airport or City:

Trip Planner

Search our weather history database for the weather conditions in past years. The results will help you decide how hot, cold, wet, or windy it might be!

Date:

Astronomy

Sep. 08, 2012 Rise Set
Actual Time 7:10 AM AKDT 8:42 PM AKDT
Civil Twilight 6:25 AM AKDT 9:26 PM AKDT
Nautical Twilight 5:28 AM AKDT 10:23 PM AKDT
Astronomical Twilight 4:18 AM AKDT 11:32 PM AKDT
Moon 11:28 PM AKDT (9/8) 5:10 PM AKDT (9/8)
Length of Visible Light 15h 01m
Length of Day
13h 31m
Waning Gibbous, 47% of the Moon is Illuminated
Sep 8
Waning Gibbous
Sep 15
New
Sep 22
First Quarter
Sep 29
Full
Oct 7
Last Quarter

Hourly Weather History & Observations

Time (AKDT) Temp. Windchill Dew Point Humidity Pressure Visibility Wind Dir Wind Speed Gust Speed Precip Events Conditions
12:53 AM 44.1 °F - 39.0 °F 82% 29.90 in 10.0 mi Calm Calm - N/A   Clear
1:53 AM 42.1 °F - 39.0 °F 89% 29.89 in 10.0 mi Calm Calm - N/A   Partly Cloudy
2:53 AM 42.1 °F 40.2 °F 37.0 °F 82% 29.88 in 10.0 mi NE 3.5 mph - N/A   Clear
3:53 AM 41.0 °F - 37.0 °F 86% 29.87 in 10.0 mi Calm Calm - N/A   Clear
4:53 AM 41.0 °F 38.0 °F 37.0 °F 86% 29.86 in 10.0 mi East 4.6 mph - N/A   Clear
5:12 AM 41.0 °F - 37.4 °F 87% 29.86 in 10.0 mi Calm Calm - N/A   Scattered Clouds
5:21 AM 41.0 °F - 37.4 °F 87% 29.86 in 10.0 mi Calm Calm - N/A   Mostly Cloudy
5:53 AM 43.0 °F - 39.0 °F 86% 29.86 in 10.0 mi Calm Calm - N/A   Overcast
6:53 AM 43.0 °F 40.3 °F 39.9 °F 89% 29.85 in 10.0 mi NE 4.6 mph - N/A   Mostly Cloudy
7:53 AM 42.1 °F 39.2 °F 39.0 °F 89% 29.85 in 10.0 mi NNE 4.6 mph - N/A   Overcast
8:19 AM 42.8 °F 40.1 °F 39.2 °F 87% 29.85 in 10.0 mi NE 4.6 mph - N/A   Overcast
8:32 AM 42.8 °F 39.3 °F 39.2 °F 87% 29.85 in 0.5 mi NE 5.8 mph - N/A   Overcast
8:53 AM 42.1 °F 38.4 °F 39.0 °F 89% 29.86 in 0.5 mi NNE 5.8 mph - N/A   Overcast
9:53 AM 42.1 °F 37.1 °F 39.0 °F 89% 29.86 in 0.5 mi NNE 8.1 mph - N/A   Overcast
10:48 AM 42.8 °F 39.3 °F 39.2 °F 87% 29.85 in 2.0 mi NNE 5.8 mph - N/A   Overcast
10:53 AM 43.0 °F 38.8 °F 39.9 °F 89% 29.85 in 2.0 mi NNE 6.9 mph - N/A   Overcast
11:09 AM 44.6 °F 40.7 °F 39.2 °F 81% 29.84 in 10.0 mi NNE 6.9 mph - N/A   Mostly Cloudy
11:53 AM 45.0 °F 40.6 °F 39.9 °F 82% 29.84 in 10.0 mi North 8.1 mph - N/A   Overcast
12:10 PM 46.4 °F 43.5 °F 39.2 °F 76% 29.83 in 10.0 mi NNE 5.8 mph - N/A   Mostly Cloudy
12:22 PM 46.4 °F 42.9 °F 39.2 °F 76% 29.82 in 10.0 mi NNE 6.9 mph - N/A   Scattered Clouds
12:53 PM 50.0 °F - 41.0 °F 71% 29.82 in 10.0 mi NNE 3.5 mph - N/A   Clear
1:53 PM 54.0 °F - 42.1 °F 64% 29.81 in 10.0 mi North 4.6 mph - N/A   Clear
2:53 PM 55.9 °F - 41.0 °F 57% 29.79 in 10.0 mi Variable 4.6 mph - N/A   Clear
3:53 PM 57.9 °F - 39.0 °F 49% 29.77 in 10.0 mi North 4.6 mph - N/A   Clear
4:53 PM 59.0 °F - 39.0 °F 48% 29.75 in 10.0 mi Variable 3.5 mph - N/A   Clear
5:53 PM 55.9 °F - 42.1 °F 60% 29.74 in 10.0 mi Calm Calm - 0.04 in   Mostly Cloudy
6:53 PM 57.0 °F - 41.0 °F 55% 29.73 in 10.0 mi Calm Calm - N/A   Scattered Clouds
7:53 PM 52.0 °F - 39.9 °F 63% 29.73 in 10.0 mi Variable 4.6 mph - N/A   Overcast
8:53 PM 50.0 °F - 37.9 °F 63% 29.72 in 10.0 mi WSW 3.5 mph - N/A   Clear
9:53 PM 46.0 °F - 39.0 °F 76% 29.72 in 10.0 mi Calm Calm - N/A   Clear
10:53 PM 48.0 °F - 36.0 °F 63% 29.72 in 10.0 mi NNE 3.5 mph - N/A   Clear
11:53 PM 46.9 °F - 36.0 °F 66% 29.71 in 10.0 mi North 4.6 mph - N/A   Clear